Погода в Крутове

Россия / Владимирская область     55°53′37″N   39°25′33″E
темп.,
°C
ветер,
м/с
пор.,
м/с
влажн.,
%
обл.,
%
осадки,
мм/ч
давл.,
гПа
погр.,
м
14 июня, пн
пн1400:00+14ююз12954 0.0 101012
03:00+13ююз22960 0.0 101123
06:00+16юз13900 0.0 1012104
09:00+22ююз23645 0.0 1014683
12:00+25юз235313 0.6 10141627
15:00+23зюз1167100 0.9 101482
18:00+21сз1179100 0.3 101411
21:00+19с117946 0.3 101411
15 июня, вт
вт1500:00+17ссв118269 0.0 101511
03:00+16ссв118526 0.0 101411
06:00+18в12832 0.0 1014101
09:00+23юв11630 0.0 1014659
12:00+27ю224817 0.1 10121934
15:00+23вюв1168100 0.2 101122
18:00+22зсз008051 0.6 101017
21:00+18в11875 0.9 101011
16 июня, ср
ср1600:00+16з119599 1.9 100911
03:00+16ссз119551 2.8 100911
06:00+17ссз129496 0.9 100981
09:00+20ссз467914 1.9 1010586
12:00+22ссз4659100 0.2 10121134
15:00+22ссз574820 0.3 10131810
18:00+21сз47515 0.0 10151564
21:00+14ссз277782 0.0 1017132
17 июня, чт
чт1700:00+14ссз2865100 0.0 1019190
03:00+11ссз38675 0.0 1021127
06:00+13ссз39675 0.0 1022290
09:00+19с36445 0.0 1023852
12:00+22ссз47391 0.0 10232165
15:00+23ссз46388 0.0 10232324
18:00+22с35520 0.0 10241089
21:00+16ссз22760 0.0 102515
18 июня, пт
пт1800:00+14з11830 0.0 102610
03:00+13зсз228235 0.0 102722
06:00+16зсз13788 0.0 102795
09:00+22з22545 0.0 1027640
12:00+25зсз23415 0.0 10271919
15:00+26з2339100 0.0 10262150
18:00+25з245217 0.0 1025507
21:00+18зюз25800 0.0 102692